Baileyton, AL

8:18 PM CDT on August 27, 2016 (GMT -0500)
Cullman

Weather History for K3A1 - February, 2013

Change the Weather History Date:

Thursday, February 28, 2013

  Actual Average (KHSV) Record (KHSV)
Temperature  
Mean Temperature 35 °F 49 °F  
Max Temperature 38 °F 60 °F 80 °F (1918)
Min Temperature 32 °F 39 °F 15 °F (1935)
Degree Days  
Heating Degree Days 30 16  
Month to date heating degree days 542  
Since 1 July heating degree days 2452  
Cooling Degree Days 0 0  
Month to date cooling degree days 1  
Year to date cooling degree days 1  
Moisture  
Dew Point 27 °F    
Average Humidity 71    
Maximum Humidity 92    
Minimum Humidity 59    
Precipitation  
Precipitation 0.00 in 0.18 in 2.70 in (1939)
Month to date precipitation 4.84  
Year to date precipitation 9.73  
Snow  
Snow 0.00 in - - ()
Month to date snowfall  
Since 1 July snowfall  
Snow Depth -    
Sea Level Pressure  
Sea Level Pressure 30.00 in    
Wind  
Wind Speed 4 mph (WNW)    
Max Wind Speed 12 mph    
Max Gust Speed 17 mph    
Visibility 10 miles    
Events      
T = Trace of Precipitation, MM = Missing Value Source: NWS Daily Summary

Daily Weather History Graph

Daily Weather History Graph

Search for Another Location

Airport or City:

Trip Planner

Search our weather history database for the weather conditions in past years. The results will help you decide how hot, cold, wet, or windy it might be!

Date:

Astronomy

Feb. 28, 2013 Rise Set
Actual Time 6:17 AM CST 5:43 PM CST
Civil Twilight 5:52 AM CST 6:08 PM CST
Nautical Twilight 5:22 AM CST 6:37 PM CST
Astronomical Twilight 4:53 AM CST 7:06 PM CST
Moon 8:57 PM CST 7:36 AM CST
Length of Visible Light 12h 16m
Length of Day
11h 25m
Waning Gibbous, 90% of the Moon is Illuminated
Feb 28
Waning Gibbous
Mar 4
Last Quarter
Mar 11
New
Mar 19
First Quarter
Mar 27
Full

Hourly Weather History & Observations

Time (CST) Temp. Windchill Dew Point Humidity Pressure Visibility Wind Dir Wind Speed Gust Speed Precip Events Conditions
12:15 AM 38.7 °F - 32.0 °F 77% 29.94 in 10.0 mi Calm Calm - N/A   Scattered Clouds
12:35 AM 37.6 °F - 32.0 °F 80% 29.94 in 10.0 mi Calm Calm - N/A   Scattered Clouds
12:55 AM 36.3 °F - 32.0 °F 84% 29.94 in 10.0 mi Calm Calm - N/A   Mostly Cloudy
1:15 AM 35.6 °F - 31.8 °F 86% 29.93 in 10.0 mi Calm Calm - N/A   Scattered Clouds
1:35 AM 35.4 °F 32.6 °F 32.0 °F 87% 29.92 in 10.0 mi SW 3.5 mph - N/A   Clear
1:55 AM 36.0 °F 33.3 °F 31.8 °F 85% 29.92 in 10.0 mi SW 3.5 mph - N/A   Scattered Clouds
2:15 AM 36.1 °F 32.3 °F 31.5 °F 83% 29.92 in 10.0 mi SW 4.6 mph - N/A   Scattered Clouds
2:35 AM 36.0 °F 31.1 °F 31.1 °F 82% 29.92 in 10.0 mi WSW 5.8 mph - N/A   Scattered Clouds
2:55 AM 35.6 °F 31.7 °F 31.1 °F 84% 29.91 in 10.0 mi WSW 4.6 mph - N/A   Clear
3:15 AM 35.1 °F 31.0 °F 31.1 °F 85% 29.91 in 10.0 mi WSW 4.6 mph - N/A   Clear
3:35 AM 34.5 °F 30.4 °F 31.1 °F 87% 29.91 in 10.0 mi WSW 4.6 mph - N/A   Clear
3:55 AM 34.0 °F 31.0 °F 30.9 °F 89% 29.91 in 10.0 mi SW 3.5 mph - N/A   Clear
4:15 AM 33.8 °F 30.8 °F 30.9 °F 89% 29.92 in 10.0 mi WSW 3.5 mph - N/A   Scattered Clouds
4:35 AM 33.4 °F 29.1 °F 30.7 °F 90% 29.92 in 10.0 mi West 4.6 mph - N/A   Scattered Clouds
4:55 AM 33.1 °F 30.0 °F 30.9 °F 92% 29.93 in 10.0 mi WSW 3.5 mph - N/A   Scattered Clouds
5:15 AM 32.9 °F 28.5 °F 30.7 °F 92% 29.94 in 10.0 mi West 4.6 mph - N/A   Scattered Clouds
5:35 AM 33.3 °F 28.9 °F 31.1 °F 92% 29.94 in 10.0 mi West 4.6 mph - N/A   Mostly Cloudy
5:55 AM 33.4 °F 29.1 °F 31.1 °F 91% 29.95 in 10.0 mi West 4.6 mph - N/A   Overcast
6:15 AM 33.4 °F 29.1 °F 30.0 °F 87% 29.96 in 10.0 mi West 4.6 mph - N/A   Mostly Cloudy
6:35 AM 33.3 °F 27.9 °F 28.6 °F 83% 29.96 in 10.0 mi West 5.8 mph - N/A   Scattered Clouds
6:55 AM 33.3 °F 27.9 °F 27.7 °F 80% 29.97 in 10.0 mi West 5.8 mph - N/A   Mostly Cloudy
7:15 AM 33.4 °F 29.1 °F 27.1 °F 78% 29.98 in 10.0 mi West 4.6 mph - N/A   Overcast
7:35 AM 33.8 °F 27.0 °F 27.0 °F 76% 29.99 in 10.0 mi WNW 8.1 mph - N/A   Overcast
7:55 AM 34.2 °F 29.0 °F 26.6 °F 74% 29.99 in 10.0 mi WNW 5.8 mph - N/A   Mostly Cloudy
8:15 AM 35.2 °F 28.1 °F 26.6 °F 71% 29.99 in 10.0 mi NW 9.2 mph - N/A   Mostly Cloudy
8:35 AM 35.8 °F 29.4 °F 26.6 °F 69% 29.99 in 10.0 mi WNW 8.1 mph - N/A   Overcast
8:55 AM 36.9 °F 29.6 °F 26.8 °F 67% 29.99 in 10.0 mi NNW 10.4 mph 17.3 mph N/A   Scattered Clouds
9:15 AM 37.9 °F 30.9 °F 27.1 °F 65% 29.99 in 10.0 mi NW 10.4 mph 17.3 mph N/A   Scattered Clouds
9:35 AM 37.2 °F 31.2 °F 26.4 °F 65% 29.99 in 10.0 mi NW 8.1 mph 17.3 mph N/A   Mostly Cloudy
9:55 AM 37.0 °F 31.0 °F 26.1 °F 65% 30.00 in 10.0 mi NW 8.1 mph - N/A   Overcast
10:15 AM 37.4 °F 30.3 °F 25.2 °F 61% 30.01 in 10.0 mi WNW 10.4 mph 16.1 mph N/A   Overcast
10:35 AM 37.2 °F 31.2 °F 24.8 °F 61% 30.01 in 10.0 mi NW 8.1 mph - N/A   Overcast
10:55 AM 37.2 °F 31.2 °F 24.8 °F 61% 30.02 in 10.0 mi NW 8.1 mph 16.1 mph N/A   Overcast
11:15 AM 37.8 °F 30.2 °F 25.0 °F 60% 30.02 in 10.0 mi NW 11.5 mph 17.3 mph N/A   Overcast
11:35 AM 37.6 °F 31.6 °F 25.2 °F 61% 30.02 in 10.0 mi NW 8.1 mph - N/A   Overcast
11:55 AM 37.2 °F 32.6 °F 25.0 °F 61% 30.02 in 10.0 mi NW 5.8 mph - N/A   Overcast
12:15 PM 37.2 °F 30.6 °F 24.8 °F 61% 30.03 in 10.0 mi WNW 9.2 mph - N/A   Overcast
12:35 PM 37.4 °F 31.4 °F 24.8 °F 60% 30.02 in 10.0 mi West 8.1 mph - N/A   Overcast
12:55 PM 37.6 °F 32.3 °F 24.4 °F 59% 30.02 in 10.0 mi WNW 6.9 mph 16.1 mph N/A   Overcast
1:15 PM 37.6 °F 31.6 °F 24.3 °F 59% 30.02 in 10.0 mi West 8.1 mph - N/A   Overcast
1:35 PM 37.9 °F 34.4 °F 24.6 °F 59% 30.02 in 10.0 mi West 4.6 mph - N/A   Overcast
1:55 PM 37.9 °F 33.5 °F 24.8 °F 59% 30.03 in 10.0 mi West 5.8 mph - N/A   Overcast
2:15 PM 37.6 °F 32.3 °F 25.2 °F 61% 30.03 in 10.0 mi NW 6.9 mph - N/A   Overcast
2:35 PM 37.2 °F 31.2 °F 25.3 °F 62% 30.04 in 10.0 mi West 8.1 mph 17.3 mph N/A   Overcast
2:55 PM 36.9 °F 30.7 °F 26.1 °F 65% 30.04 in 10.0 mi West 8.1 mph - N/A   Overcast
3:15 PM 37.0 °F 31.6 °F 26.2 °F 65% 30.04 in 10.0 mi WNW 6.9 mph - N/A   Overcast
3:35 PM 36.9 °F 30.7 °F 26.2 °F 65% 30.04 in 10.0 mi NW 8.1 mph - N/A   Overcast
3:55 PM 36.9 °F 30.7 °F 26.2 °F 65% 30.05 in 10.0 mi WNW 8.1 mph - N/A   Overcast
4:15 PM 36.9 °F 31.4 °F 25.9 °F 64% 30.04 in 10.0 mi WNW 6.9 mph - N/A   Overcast
4:35 PM 36.9 °F 32.2 °F 25.7 °F 64% 30.05 in 10.0 mi NW 5.8 mph - N/A   Overcast
4:55 PM 36.7 °F 32.0 °F 25.7 °F 64% 30.04 in 10.0 mi WNW 5.8 mph - N/A   Overcast
5:15 PM 36.5 °F 31.8 °F 26.1 °F 66% 30.05 in 10.0 mi NW 5.8 mph - N/A   Overcast
5:35 PM 36.5 °F - 26.2 °F 66% 30.06 in 10.0 mi Calm Calm - N/A   Overcast
5:55 PM 36.3 °F 33.7 °F 26.2 °F 67% 30.06 in 10.0 mi NW 3.5 mph - N/A   Overcast
6:15 PM 36.1 °F 31.4 °F 26.1 °F 67% 30.06 in 10.0 mi NW 5.8 mph - N/A   Overcast
6:35 PM 36.0 °F 33.3 °F 25.9 °F 67% 30.06 in 10.0 mi NW 3.5 mph - N/A   Overcast
6:55 PM 36.0 °F - 25.9 °F 67% 30.06 in 10.0 mi Calm Calm - N/A   Overcast
7:15 PM 36.0 °F 31.1 °F 25.7 °F 66% 30.07 in 10.0 mi NW 5.8 mph - N/A   Overcast
7:35 PM 36.0 °F 33.3 °F 25.7 °F 66% 30.06 in 10.0 mi NW 3.5 mph - N/A   Overcast
7:55 PM 35.8 °F 33.0 °F 25.9 °F 67% 30.06 in 10.0 mi NW 3.5 mph - N/A   Overcast
8:15 PM 35.8 °F 33.0 °F 26.2 °F 68% 30.06 in 10.0 mi NW 3.5 mph - N/A   Overcast
8:35 PM 35.8 °F 31.9 °F 26.1 °F 68% 30.06 in 10.0 mi NW 4.6 mph - N/A   Overcast
8:55 PM 35.8 °F 31.9 °F 25.9 °F 67% 30.06 in 10.0 mi NW 4.6 mph - N/A   Overcast
9:15 PM 35.6 °F 28.6 °F 25.9 °F 68% 30.07 in 10.0 mi NW 9.2 mph - N/A   Overcast
9:35 PM 35.6 °F 29.2 °F 25.5 °F 67% 30.07 in 10.0 mi NNW 8.1 mph - N/A   Overcast
9:55 PM 35.6 °F 29.9 °F 25.3 °F 66% 30.07 in 10.0 mi NW 6.9 mph - N/A   Overcast
10:15 PM 35.6 °F 30.7 °F 25.3 °F 66% 30.06 in 10.0 mi NW 5.8 mph - N/A   Overcast
10:35 PM 35.6 °F 32.8 °F 25.5 °F 67% 30.06 in 10.0 mi NW 3.5 mph - N/A   Overcast
10:55 PM 35.6 °F 30.7 °F 25.7 °F 67% 30.05 in 10.0 mi NNW 5.8 mph - N/A   Overcast
11:15 PM 35.6 °F 30.7 °F 25.7 °F 67% 30.05 in 10.0 mi NNW 5.8 mph - N/A   Overcast
11:35 PM 35.6 °F 31.7 °F 25.7 °F 67% 30.04 in 10.0 mi NNW 4.6 mph - N/A   Overcast
11:55 PM 35.2 °F 32.4 °F 25.9 °F 69% 30.04 in 10.0 mi North 3.5 mph - N/A   Overcast